Time,TemperatureF,DewpointF,PressureIn,WindDirection,WindDirectionDegrees,WindSpeedMPH,WindSpeedGustMPH,Humidity,HourlyPrecipIn,Conditions,Clouds,dailyrainin,SoftwareType,DateUTC
2013-02-05 00:04:00,38.7,37.0,29.90,WSW,254,4.0,8.0,94,0.00,,,0.00,weatherlink.com 1.10,2013-02-05 05:04:00,
2013-02-05 00:19:00,38.5,37.0,29.90,WSW,250,3.0,5.0,93,0.00,,,0.00,weatherlink.com 1.10,2013-02-05 05:19:00,
2013-02-05 00:36:00,38.1,36.0,29.91,WSW,250,5.0,6.0,93,0.00,,,0.00,weatherlink.com 1.10,2013-02-05 05:36:00,
2013-02-05 00:49:00,37.8,36.0,29.91,West,269,3.0,8.0,93,0.00,,,0.00,weatherlink.com 1.10,2013-02-05 05:49:00,
2013-02-05 01:05:00,37.3,36.0,29.90,WSW,244,2.0,3.0,93,0.00,,,0.00,weatherlink.com 1.10,2013-02-05 06:05:00,
2013-02-05 01:20:00,36.9,35.0,29.90,West,281,1.0,4.0,93,0.00,,,0.00,weatherlink.com 1.10,2013-02-05 06:20:00,
2013-02-05 01:35:00,36.6,35.0,29.90,West,259,0.0,3.0,93,0.00,,,0.00,weatherlink.com 1.10,2013-02-05 06:35:00,
2013-02-05 01:50:00,36.2,34.0,29.91,NW,324,3.0,6.0,93,0.00,,,0.00,weatherlink.com 1.10,2013-02-05 06:50:00,
2013-02-05 02:05:00,35.7,34.0,29.91,West,261,0.0,3.0,93,0.00,,,0.00,weatherlink.com 1.10,2013-02-05 07:05:00,
2013-02-05 02:20:00,35.4,33.0,29.92,NW,321,2.0,5.0,92,0.00,,,0.00,weatherlink.com 1.10,2013-02-05 07:20:00,
2013-02-05 02:35:00,35.0,33.0,29.91,NW,313,0.0,5.0,92,0.00,,,0.00,weatherlink.com 1.10,2013-02-05 07:35:00,
2013-02-05 02:50:00,34.7,33.0,29.91,NNW,337,2.0,4.0,92,0.00,,,0.00,weatherlink.com 1.10,2013-02-05 07:50:00,
2013-02-05 03:05:00,34.1,31.0,29.91,NNW,340,1.0,3.0,89,0.00,,,0.00,weatherlink.com 1.10,2013-02-05 08:05:00,
2013-02-05 03:20:00,33.5,30.0,29.91,NNW,340,0.0,0.0,88,0.00,,,0.00,weatherlink.com 1.10,2013-02-05 08:20:00,
2013-02-05 03:35:00,32.8,29.0,29.91,NW,321,2.0,4.0,87,0.00,,,0.00,weatherlink.com 1.10,2013-02-05 08:35:00,
2013-02-05 03:50:00,32.4,29.0,29.92,NW,323,0.0,4.0,87,0.00,,,0.00,weatherlink.com 1.10,2013-02-05 08:50:00,
2013-02-05 04:05:00,32.1,29.0,29.92,NW,310,1.0,3.0,87,0.00,,,0.00,weatherlink.com 1.10,2013-02-05 09:05:00,
2013-02-05 04:20:00,31.7,28.0,29.92,NW,320,0.0,5.0,87,0.00,,,0.00,weatherlink.com 1.10,2013-02-05 09:20:00,
2013-02-05 04:35:00,31.5,28.0,29.92,NW,320,0.0,1.0,87,0.00,,,0.00,weatherlink.com 1.10,2013-02-05 09:35:00,
2013-02-05 04:50:00,31.0,28.0,29.91,NW,320,0.0,0.0,88,0.00,,,0.00,weatherlink.com 1.10,2013-02-05 09:50:00,
2013-02-05 05:05:00,30.4,27.0,29.92,NW,321,0.0,0.0,88,0.00,,,0.00,weatherlink.com 1.10,2013-02-05 10:05:00,
2013-02-05 05:20:00,30.1,27.0,29.92,NW,320,0.0,0.0,89,0.00,,,0.00,weatherlink.com 1.10,2013-02-05 10:20:00,
2013-02-05 05:35:00,29.5,27.0,29.92,NW,320,0.0,0.0,90,0.00,,,0.00,weatherlink.com 1.10,2013-02-05 10:35:00,
2013-02-05 05:50:00,29.0,27.0,29.92,NW,321,0.0,0.0,92,0.00,,,0.00,weatherlink.com 1.10,2013-02-05 10:50:00,
2013-02-05 06:05:00,28.7,27.0,29.93,NW,320,0.0,1.0,92,0.00,,,0.00,weatherlink.com 1.10,2013-02-05 11:05:00,
2013-02-05 06:20:00,28.2,26.0,29.93,NW,320,0.0,0.0,92,0.00,,,0.00,weatherlink.com 1.10,2013-02-05 11:20:00,
2013-02-05 06:35:00,27.8,26.0,29.93,NW,320,0.0,0.0,93,0.00,,,0.00,weatherlink.com 1.10,2013-02-05 11:35:00,
2013-02-05 06:50:00,27.4,26.0,29.93,NW,321,0.0,0.0,93,0.00,,,0.00,weatherlink.com 1.10,2013-02-05 11:50:00,
2013-02-05 07:06:00,27.3,26.0,29.94,NW,320,0.0,0.0,94,0.00,,,0.00,weatherlink.com 1.10,2013-02-05 12:06:00,
2013-02-05 07:20:00,27.4,26.0,29.95,NW,321,0.0,0.0,93,0.00,,,0.00,weatherlink.com 1.10,2013-02-05 12:20:00,
2013-02-05 07:35:00,27.2,26.0,29.95,NW,320,0.0,0.0,93,0.00,,,0.00,weatherlink.com 1.10,2013-02-05 12:35:00,
2013-02-05 07:50:00,26.9,25.0,29.96,NW,321,1.0,2.0,93,0.00,,,0.00,weatherlink.com 1.10,2013-02-05 12:50:00,
2013-02-05 08:06:00,26.6,25.0,29.96,NW,321,0.0,0.0,93,0.00,,,0.00,weatherlink.com 1.10,2013-02-05 13:06:00,
2013-02-05 08:20:00,26.6,25.0,29.97,NW,321,0.0,0.0,94,0.00,,,0.00,weatherlink.com 1.10,2013-02-05 13:20:00,
2013-02-05 08:36:00,26.9,25.0,29.96,NW,321,0.0,0.0,94,0.00,,,0.00,weatherlink.com 1.10,2013-02-05 13:36:00,
2013-02-05 08:51:00,27.7,27.0,29.96,NW,321,0.0,0.0,95,0.00,,,0.00,weatherlink.com 1.10,2013-02-05 13:51:00,
2013-02-05 09:06:00,28.9,28.0,29.97,NW,321,0.0,0.0,95,0.00,,,0.00,weatherlink.com 1.10,2013-02-05 14:06:00,
2013-02-05 09:21:00,29.6,28.0,29.96,NW,321,0.0,0.0,94,0.00,,,0.00,weatherlink.com 1.10,2013-02-05 14:21:00,
2013-02-05 09:36:00,30.1,28.0,29.98,WSW,246,2.0,3.0,92,0.00,,,0.00,weatherlink.com 1.10,2013-02-05 14:36:00,
2013-02-05 09:51:00,30.4,28.0,29.97,WSW,245,2.0,3.0,91,0.00,,,0.00,weatherlink.com 1.10,2013-02-05 14:51:00,
2013-02-05 10:06:00,30.8,28.0,29.98,WSW,245,2.0,4.0,90,0.00,,,0.00,weatherlink.com 1.10,2013-02-05 15:06:00,
2013-02-05 10:21:00,31.6,29.0,29.98,WSW,248,1.0,4.0,90,0.00,,,0.00,weatherlink.com 1.10,2013-02-05 15:21:00,
2013-02-05 10:36:00,31.9,29.0,29.99,SSW,200,4.0,5.0,90,0.00,,,0.00,weatherlink.com 1.10,2013-02-05 15:36:00,
2013-02-05 10:51:00,32.6,30.0,29.98,SW,225,2.0,5.0,90,0.00,,,0.00,weatherlink.com 1.10,2013-02-05 15:51:00,
2013-02-05 11:06:00,33.4,31.0,29.98,SW,229,2.0,4.0,90,0.00,,,0.00,weatherlink.com 1.10,2013-02-05 16:06:00,
2013-02-05 11:21:00,34.2,31.0,29.98,SSW,196,3.0,5.0,88,0.00,,,0.00,weatherlink.com 1.10,2013-02-05 16:21:00,
2013-02-05 11:36:00,35.1,32.0,29.97,South,184,3.0,6.0,87,0.00,,,0.00,weatherlink.com 1.10,2013-02-05 16:36:00,
2013-02-05 11:51:00,35.4,31.0,29.97,SSW,194,5.0,8.0,84,0.00,,,0.00,weatherlink.com 1.10,2013-02-05 16:51:00,
2013-02-05 12:06:00,36.1,32.0,29.96,SSW,201,4.0,8.0,84,0.00,,,0.00,weatherlink.com 1.10,2013-02-05 17:06:00,
2013-02-05 12:21:00,37.2,32.0,29.95,WSW,246,4.0,7.0,82,0.00,,,0.00,weatherlink.com 1.10,2013-02-05 17:21:00,
2013-02-05 12:36:00,37.6,32.0,29.94,South,178,3.0,9.0,79,0.00,,,0.00,weatherlink.com 1.10,2013-02-05 17:36:00,
2013-02-05 12:51:00,38.4,33.0,29.93,SSW,204,4.0,8.0,80,0.00,,,0.00,weatherlink.com 1.10,2013-02-05 17:51:00,
2013-02-05 13:06:00,39.1,33.0,29.93,SSW,205,4.0,10.0,78,0.00,,,0.00,weatherlink.com 1.10,2013-02-05 18:06:00,
2013-02-05 13:21:00,39.6,33.0,29.93,South,191,5.0,8.0,78,0.00,,,0.00,weatherlink.com 1.10,2013-02-05 18:21:00,
2013-02-05 13:36:00,40.5,34.0,29.92,SSW,198,4.0,9.0,76,0.00,,,0.00,weatherlink.com 1.10,2013-02-05 18:36:00,
2013-02-05 13:51:00,41.1,34.0,29.91,SSW,202,6.0,10.0,76,0.00,,,0.00,weatherlink.com 1.10,2013-02-05 18:51:00,
2013-02-05 14:06:00,41.8,34.0,29.90,SSW,199,4.0,10.0,75,0.00,,,0.00,weatherlink.com 1.10,2013-02-05 19:06:00,
2013-02-05 14:21:00,42.9,35.0,29.90,South,185,4.0,10.0,73,0.00,,,0.00,weatherlink.com 1.10,2013-02-05 19:21:00,
2013-02-05 14:36:00,43.8,35.0,29.91,West,278,3.0,9.0,71,0.00,,,0.00,weatherlink.com 1.10,2013-02-05 19:36:00,
2013-02-05 14:51:00,43.2,35.0,29.91,SW,233,7.0,10.0,73,0.00,,,0.00,weatherlink.com 1.10,2013-02-05 19:51:00,
2013-02-05 15:06:00,43.5,35.0,29.90,WSW,242,6.0,9.0,71,0.00,,,0.00,weatherlink.com 1.10,2013-02-05 20:06:00,
2013-02-05 15:21:00,44.1,35.0,29.90,SW,225,4.0,9.0,71,0.00,,,0.00,weatherlink.com 1.10,2013-02-05 20:21:00,
2013-02-05 15:36:00,45.5,36.0,29.89,South,177,8.0,9.0,69,0.00,,,0.00,weatherlink.com 1.10,2013-02-05 20:36:00,
2013-02-05 15:51:00,45.1,35.0,29.89,South,182,7.0,10.0,69,0.00,,,0.00,weatherlink.com 1.10,2013-02-05 20:51:00,
2013-02-05 16:06:00,45.2,36.0,29.89,SSW,203,7.0,12.0,69,0.00,,,0.00,weatherlink.com 1.10,2013-02-05 21:06:00,
2013-02-05 16:21:00,45.7,36.0,29.89,WSW,244,6.0,13.0,69,0.00,,,0.00,weatherlink.com 1.10,2013-02-05 21:21:00,
2013-02-05 16:36:00,46.6,36.0,29.89,SW,227,3.0,10.0,68,0.00,,,0.00,weatherlink.com 1.10,2013-02-05 21:36:00,
2013-02-05 16:51:00,46.7,37.0,29.89,SW,219,3.0,12.0,68,0.00,,,0.00,weatherlink.com 1.10,2013-02-05 21:51:00,
2013-02-05 17:06:00,46.7,36.0,29.89,SW,221,2.0,12.0,67,0.00,,,0.00,weatherlink.com 1.10,2013-02-05 22:06:00,
2013-02-05 17:21:00,45.7,36.0,29.90,SW,223,8.0,10.0,69,0.00,,,0.00,weatherlink.com 1.10,2013-02-05 22:21:00,
2013-02-05 17:36:00,45.4,36.0,29.91,SW,223,4.0,9.0,71,0.00,,,0.00,weatherlink.com 1.10,2013-02-05 22:36:00,
2013-02-05 17:51:00,44.4,36.0,29.91,SW,215,1.0,8.0,73,0.00,,,0.00,weatherlink.com 1.10,2013-02-05 22:51:00,
2013-02-05 18:06:00,43.5,36.0,29.92,SW,219,0.0,4.0,74,0.00,,,0.00,weatherlink.com 1.10,2013-02-05 23:06:00,
2013-02-05 18:21:00,42.6,36.0,29.92,SSW,209,0.0,3.0,76,0.00,,,0.00,weatherlink.com 1.10,2013-02-05 23:21:00,
2013-02-05 18:36:00,41.8,35.0,29.92,SSW,209,0.0,0.0,77,0.00,,,0.00,weatherlink.com 1.10,2013-02-05 23:36:00,
2013-02-05 18:51:00,40.7,34.0,29.93,SSW,209,0.0,0.0,78,0.00,,,0.00,weatherlink.com 1.10,2013-02-05 23:51:00,
2013-02-05 19:06:00,38.8,33.0,29.94,SSW,209,0.0,0.0,81,0.00,,,0.00,weatherlink.com 1.10,2013-02-06 00:06:00,
2013-02-05 19:21:00,37.0,32.0,29.95,WSW,240,0.0,3.0,83,0.00,,,0.00,weatherlink.com 1.10,2013-02-06 00:21:00,
2013-02-05 19:36:00,35.8,32.0,29.96,WSW,240,0.0,0.0,86,0.00,,,0.00,weatherlink.com 1.10,2013-02-06 00:36:00,
2013-02-05 19:51:00,34.6,31.0,29.97,WSW,248,0.0,2.0,87,0.00,,,0.00,weatherlink.com 1.10,2013-02-06 00:51:00,
2013-02-05 20:06:00,34.2,31.0,29.98,WSW,242,0.0,1.0,89,0.00,,,0.00,weatherlink.com 1.10,2013-02-06 01:06:00,
2013-02-05 20:21:00,36.8,34.0,29.98,WSW,248,0.0,5.0,89,0.00,,,0.00,weatherlink.com 1.10,2013-02-06 01:21:00,
2013-02-05 20:36:00,37.4,34.0,29.99,WSW,254,0.0,3.0,86,0.00,,,0.00,weatherlink.com 1.10,2013-02-06 01:36:00,
2013-02-05 20:51:00,37.3,33.0,29.99,West,277,0.0,4.0,85,0.00,,,0.00,weatherlink.com 1.10,2013-02-06 01:51:00,
2013-02-05 21:06:00,37.3,33.0,30.00,West,277,0.0,1.0,84,0.00,,,0.00,weatherlink.com 1.10,2013-02-06 02:06:00,
2013-02-05 21:22:00,36.4,33.0,30.01,WNW,299,0.0,3.0,86,0.00,,,0.00,weatherlink.com 1.10,2013-02-06 02:22:00,
2013-02-05 21:37:00,35.8,32.0,30.01,WNW,299,0.0,1.0,87,0.00,,,0.00,weatherlink.com 1.10,2013-02-06 02:37:00,
2013-02-05 21:52:00,35.3,32.0,30.02,West,265,1.0,2.0,89,0.00,,,0.00,weatherlink.com 1.10,2013-02-06 02:52:00,
2013-02-05 22:07:00,34.8,32.0,30.02,West,265,0.0,1.0,88,0.00,,,0.00,weatherlink.com 1.10,2013-02-06 03:07:00,
2013-02-05 22:22:00,33.9,31.0,30.03,West,265,0.0,1.0,89,0.00,,,0.00,weatherlink.com 1.10,2013-02-06 03:22:00,
2013-02-05 22:37:00,33.3,30.0,30.04,West,265,0.0,1.0,89,0.00,,,0.00,weatherlink.com 1.10,2013-02-06 03:37:00,
2013-02-05 22:52:00,32.8,31.0,30.04,West,265,0.0,1.0,91,0.00,,,0.00,weatherlink.com 1.10,2013-02-06 03:52:00,
2013-02-05 23:07:00,32.8,31.0,30.05,West,265,0.0,1.0,91,0.00,,,0.00,weatherlink.com 1.10,2013-02-06 04:07:00,
2013-02-05 23:22:00,32.1,30.0,30.05,WNW,298,0.0,4.0,92,0.00,,,0.00,weatherlink.com 1.10,2013-02-06 04:22:00,
2013-02-05 23:37:00,34.4,32.0,30.05,WNW,302,0.0,3.0,91,0.00,,,0.00,weatherlink.com 1.10,2013-02-06 04:37:00,
2013-02-05 23:52:00,35.8,32.0,30.06,NW,304,0.0,4.0,87,0.00,,,0.00,weatherlink.com 1.10,2013-02-06 04:52:00,